,,Stat5,,Stat1,,Stat2,,Stat3,,Stat4,,Wind1,,Wind1,
time,status,PA1M_AVG,status,PR1M_SUM,status,RH1M_AVG,status,SR1M_AVG,status,TA1M_AVG,status,W1dAve1m,status,W1sAve1m,
2002-02-15, 00:00:01,VALID,919.747,VALID,0,VALID,83.4864,VALID,0.0169808,VALID,21.2648,VALID,134,VALID,1.23397,
2002-02-15, 00:01:00,VALID,919.747,VALID,0,VALID,83.3931,VALID,0,VALID,21.27,VALID,129,VALID,1.74589,
2002-02-15, 00:02:00,VALID,919.726,VALID,0,VALID,83.1222,VALID,0.0169808,VALID,21.2857,VALID,136,VALID,1.68483,
2002-02-15, 00:03:01,VALID,919.717,VALID,0,VALID,83.36,VALID,0,VALID,21.2986,VALID,129,VALID,1.71368,
2002-02-15, 00:04:00,VALID,919.713,VALID,0,VALID,83.2723,VALID,0.0169808,VALID,21.2792,VALID,124,VALID,1.61613,
2002-02-15, 00:05:00,VALID,919.708,VALID,0,VALID,83.3104,VALID,0.0169808,VALID,21.2889,VALID,125,VALID,1.21921,
2002-02-15, 00:06:00,VALID,919.694,VALID,0,VALID,83.4249,VALID,0.0339617,VALID,21.2827,VALID,120,VALID,1.08265,
2002-02-15, 00:07:00,VALID,919.688,VALID,0,VALID,83.4503,VALID,0.0169808,VALID,21.2663,VALID,122,VALID,1.16674,
2002-02-15, 00:08:00,VALID,919.668,VALID,0,VALID,83.5902,VALID,0,VALID,21.2534,VALID,131,VALID,1.32357,
2002-02-15, 00:09:00,VALID,919.636,VALID,0,VALID,83.7631,VALID,-0.0849042,VALID,21.2323,VALID,129,VALID,0.982475,
2002-02-15, 00:10:00,VALID,919.613,VALID,0,VALID,83.828,VALID,-0.101885,VALID,21.213,VALID,133,VALID,1.21214,
2002-02-15, 00:11:00,VALID,919.584,VALID,0,VALID,84.0874,VALID,-0.118866,VALID,21.1906,VALID,134,VALID,1.36143,
2002-02-15, 00:12:00,VALID,919.56,VALID,0,VALID,84.7931,VALID,-0.101885,VALID,21.1575,VALID,150,VALID,1.29338,
2002-02-15, 00:13:00,VALID,919.558,VALID,0,VALID,85.8257,VALID,-0.101885,VALID,21.074,VALID,154,VALID,1.13682,
2002-02-15, 00:14:01,VALID,919.543,VALID,0,VALID,86.8163,VALID,-0.0849042,VALID,20.9415,VALID,145,VALID,1.30879,
2002-02-15, 00:15:00,VALID,919.519,VALID,0,VALID,87.5284,VALID,-0.118866,VALID,20.7926,VALID,139,VALID,0.840666,
2002-02-15, 00:16:01,VALID,919.503,VALID,0,VALID,87.976,VALID,-0.101885,VALID,20.6795,VALID,131,VALID,0.909951,
2002-02-15, 00:17:00,VALID,919.471,VALID,0,VALID,88.1947,VALID,-0.0679233,VALID,20.6017,VALID,118,VALID,1.25,
2002-02-15, 00:18:01,VALID,919.46,VALID,0,VALID,88.3422,VALID,-0.101885,VALID,20.5635,VALID,106,VALID,1.04667,
2002-02-15, 00:19:01,VALID,919.437,VALID,0,VALID,88.182,VALID,-0.101885,VALID,20.5476,VALID,114,VALID,1.46608,
2002-02-15, 00:20:00,VALID,919.408,VALID,0,VALID,88.201,VALID,-0.118866,VALID,20.5441,VALID,103,VALID,0.92722,
2002-02-15, 00:21:00,VALID,919.373,VALID,0,VALID,88.0688,VALID,-0.0679233,VALID,20.5404,VALID,100,VALID,0.963542,
2002-02-15, 00:22:01,VALID,919.351,VALID,0,VALID,88.1158,VALID,-0.0849042,VALID,20.5535,VALID,93,VALID,0.96582,
2002-02-15, 00:23:00,VALID,919.303,VALID,0,VALID,88.2201,VALID,-0.0679233,VALID,20.5401,VALID,94,VALID,0.974095,
2002-02-15, 00:24:01,VALID,919.274,VALID,0,VALID,88.4859,VALID,0.0169808,VALID,20.5199,VALID,87,VALID,1.21608,
2002-02-15, 00:25:00,VALID,919.254,VALID,0,VALID,88.7555,VALID,0,VALID,20.4712,VALID,88,VALID,1.66077,
2002-02-15, 00:26:00,VALID,919.23,VALID,0,VALID,88.9805,VALID,0.0169808,VALID,20.4354,VALID,103,VALID,1.12068,
2002-02-15, 00:27:00,VALID,919.227,VALID,0,VALID,89.259,VALID,0,VALID,20.4168,VALID,106,VALID,1.4155,
2002-02-15, 00:28:00,VALID,919.203,VALID,0,VALID,89.521,VALID,0.0339617,VALID,20.3773,VALID,117,VALID,0.757607,
2002-02-15, 00:29:00,VALID,919.198,VALID,0,VALID,89.8147,VALID,0.0339617,VALID,20.352,VALID,107,VALID,1.17889,
2002-02-15, 00:30:01,VALID,919.176,VALID,0,VALID,90.1962,VALID,0,VALID,20.2941,VALID,112,VALID,1.0248,
2002-02-15, 00:31:00,VALID,919.162,VALID,0,VALID,90.5141,VALID,0.0169808,VALID,20.2225,VALID,109,VALID,1.13096,
2002-02-15, 00:32:01,VALID,919.143,VALID,0,VALID,90.8053,VALID,0,VALID,20.1845,VALID,127,VALID,1.10218,
2002-02-15, 00:33:00,VALID,919.126,VALID,0,VALID,91.0037,VALID,0.0169808,VALID,20.1455,VALID,140,VALID,1.09437,
2002-02-15, 00:34:00,VALID,919.112,VALID,0,VALID,91.2478,VALID,0.0169808,VALID,20.1234,VALID,148,VALID,1.26501,
2002-02-15, 00:35:00,VALID,919.099,VALID,0,VALID,91.4004,VALID,0.0169808,VALID,20.107,VALID,144,VALID,1.10896,
2002-02-15, 00:36:00,VALID,919.082,VALID,0,VALID,91.5415,VALID,0.0169808,VALID,20.0776,VALID,156,VALID,1.29605,
2002-02-15, 00:37:00,VALID,919.076,VALID,0,VALID,91.7145,VALID,0,VALID,20.0647,VALID,149,VALID,0.928886,
2002-02-15, 00:38:01,VALID,919.069,VALID,0,VALID,91.7628,VALID,0.0169808,VALID,20.0354,VALID,146,VALID,1.18613,
2002-02-15, 00:39:00,VALID,919.051,VALID,0,VALID,91.6852,VALID,0,VALID,20.026,VALID,145,VALID,1.67167,
2002-02-15, 00:40:01,VALID,919.035,VALID,0,VALID,91.5619,VALID,0,VALID,20.0456,VALID,142,VALID,1.17784,
2002-02-15, 00:41:00,VALID,919.034,VALID,0,VALID,91.4118,VALID,0.0339617,VALID,20.0585,VALID,153,VALID,1.09848,
2002-02-15, 00:42:01,VALID,919.018,VALID,0,VALID,91.0011,VALID,0,VALID,20.0816,VALID,140,VALID,1.45004,
2002-02-15, 00:43:01,VALID,919.02,VALID,0,VALID,90.7366,VALID,0,VALID,20.1201,VALID,103,VALID,0.374178,
2002-02-15, 00:44:00,VALID,919.024,VALID,0,VALID,90.6768,VALID,0.0169808,VALID,20.1651,VALID,53,VALID,0.402549,
2002-02-15, 00:45:00,VALID,919.023,VALID,0,VALID,90.3462,VALID,0.0169808,VALID,20.1683,VALID,114,VALID,0.872796,
2002-02-15, 00:46:01,VALID,918.995,VALID,0,VALID,89.9609,VALID,0,VALID,20.2011,VALID,110,VALID,0.838086,
2002-02-15, 00:47:01,VALID,918.987,VALID,0,VALID,89.6672,VALID,0,VALID,20.2302,VALID,121,VALID,0.548314,
2002-02-15, 00:48:01,VALID,918.988,VALID,0,VALID,89.7155,VALID,0.0169808,VALID,20.2692,VALID,90,VALID,0.45148,
2002-02-15, 00:49:01,VALID,918.97,VALID,0,VALID,89.7333,VALID,0,VALID,20.255,VALID,63,VALID,0.613692,
2002-02-15, 00:50:00,VALID,918.942,VALID,0,VALID,89.5197,VALID,0,VALID,20.2528,VALID,57,VALID,0.537623,
2002-02-15, 00:51:00,VALID,918.927,VALID,0,VALID,89.4739,VALID,0,VALID,20.2394,VALID,60,VALID,0.685855,
2002-02-15, 00:52:01,VALID,918.918,VALID,0,VALID,89.4841,VALID,-0.0339617,VALID,20.2238,VALID,55,VALID,0.866982,
2002-02-15, 00:53:00,VALID,918.924,VALID,0,VALID,89.5197,VALID,0,VALID,20.1847,VALID,34,VALID,1.16807,
2002-02-15, 00:54:01,VALID,918.922,VALID,0,VALID,89.6163,VALID,0,VALID,20.1492,VALID,35,VALID,1.22988,
2002-02-15, 00:55:00,VALID,918.926,VALID,0,VALID,89.6011,VALID,-0.0169808,VALID,20.1234,VALID,39,VALID,1.01295,
2002-02-15, 00:56:01,VALID,918.906,VALID,0,VALID,89.5057,VALID,-0.0169808,VALID,20.1398,VALID,57,VALID,1.14659,
2002-02-15, 00:57:01,VALID,918.898,VALID,0,VALID,89.287,VALID,0,VALID,20.1688,VALID,61,VALID,1.30345,
2002-02-15, 00:58:00,VALID,918.873,VALID,0,VALID,88.9882,VALID,0,VALID,20.2041,VALID,55,VALID,1.05325,
2002-02-15, 00:59:00,VALID,918.861,VALID,0,VALID,88.819,VALID,0,VALID,20.2426,VALID,63,VALID,0.923931,
2002-02-15, 01:00:01,VALID,918.861,VALID,0,VALID,88.7516,VALID,0,VALID,20.2528,VALID,69,VALID,1.07075,
2002-02-15, 01:01:00,VALID,918.845,VALID,0,VALID,88.4325,VALID,-0.0169808,VALID,20.269,VALID,62,VALID,1.08013,
2002-02-15, 01:02:01,VALID,918.842,VALID,0,VALID,88.4376,VALID,0,VALID,20.2916,VALID,42,VALID,0.857031,
2002-02-15, 01:03:00,VALID,918.833,VALID,0,VALID,88.4172,VALID,-0.0169808,VALID,20.2981,VALID,56,VALID,0.705387,
2002-02-15, 01:04:01,VALID,918.828,VALID,0,VALID,88.3829,VALID,0,VALID,20.2857,VALID,49,VALID,0.855058,
2002-02-15, 01:05:01,VALID,918.831,VALID,0,VALID,88.3091,VALID,-0.0169808,VALID,20.2817,VALID,39,VALID,0.890625,
2002-02-15, 01:06:01,VALID,918.827,VALID,0,VALID,88.2951,VALID,0.0169808,VALID,20.2782,VALID,51,VALID,0.791735,
2002-02-15, 01:07:01,VALID,918.825,VALID,0,VALID,88.3765,VALID,0,VALID,20.2819,VALID,87,VALID,0.720189,
2002-02-15, 01:08:01,VALID,918.828,VALID,0,VALID,88.1959,VALID,0.0169808,VALID,20.2593,VALID,98,VALID,0.973067,
2002-02-15, 01:09:01,VALID,918.802,VALID,0,VALID,87.8717,VALID,0,VALID,20.2787,VALID,125,VALID,1.08053,
2002-02-15, 01:10:01,VALID,918.785,VALID,0,VALID,87.6161,VALID,-0.0169808,VALID,20.3204,VALID,144,VALID,0.693945,
2002-02-15, 01:11:01,VALID,918.765,VALID,0,VALID,87.5665,VALID,0,VALID,20.3527,VALID,126,VALID,0.484375,
2002-02-15, 01:12:01,VALID,918.762,VALID,0,VALID,87.3491,VALID,0.0169808,VALID,20.3689,VALID,128,VALID,0.795436,
2002-02-15, 01:13:01,VALID,918.76,VALID,0,VALID,87.0223,VALID,0,VALID,20.4109,VALID,137,VALID,1.0847,
2002-02-15, 01:14:01,VALID,918.746,VALID,0,VALID,86.7565,VALID,0,VALID,20.4534,VALID,137,VALID,0.771793,
2002-02-15, 01:15:01,VALID,918.747,VALID,0,VALID,86.6853,VALID,0,VALID,20.4817,VALID,149,VALID,0.775288,
2002-02-15, 01:16:01,VALID,918.731,VALID,0,VALID,86.2924,VALID,-0.0169808,VALID,20.5083,VALID,154,VALID,1.19511,
2002-02-15, 01:17:01,VALID,918.725,VALID,0,VALID,86.0291,VALID,0,VALID,20.5401,VALID,145,VALID,0.870994,
2002-02-15, 01:18:01,VALID,918.703,VALID,0,VALID,85.8829,VALID,0.0169808,VALID,20.5692,VALID,136,VALID,0.724805,
2002-02-15, 01:19:01,VALID,918.693,VALID,0,VALID,85.7049,VALID,0.0169808,VALID,20.605,VALID,117,VALID,0.620271,
2002-02-15, 01:20:01,VALID,918.668,VALID,0,VALID,85.4544,VALID,0,VALID,20.6416,VALID,133,VALID,0.891242,
2002-02-15, 01:21:01,VALID,918.642,VALID,0,VALID,85.3514,VALID,0,VALID,20.6505,VALID,115,VALID,0.758018,
2002-02-15, 01:22:01,VALID,918.638,VALID,0,VALID,85.3209,VALID,0,VALID,20.6599,VALID,116,VALID,1.04708,
2002-02-15, 01:23:01,VALID,918.639,VALID,0,VALID,85.2369,VALID,0,VALID,20.6596,VALID,113,VALID,1.00966,
2002-02-15, 01:24:01,VALID,918.652,VALID,0,VALID,85.228,VALID,-0.0339617,VALID,20.6599,VALID,94,VALID,0.628289,
2002-02-15, 01:25:01,VALID,918.647,VALID,0,VALID,85.0805,VALID,0,VALID,20.6691,VALID,114,VALID,0.755809,
2002-02-15, 01:26:01,VALID,918.649,VALID,0,VALID,85.1886,VALID,0,VALID,20.686,VALID,86,VALID,0.70918,
2002-02-15, 01:27:01,VALID,918.656,VALID,0,VALID,84.9584,VALID,0,VALID,20.6795,VALID,100,VALID,0.992188,
2002-02-15, 01:28:00,VALID,918.637,VALID,0,VALID,85.0284,VALID,0,VALID,20.6895,VALID,88,VALID,0.810855,
2002-02-15, 01:29:00,VALID,918.613,VALID,0,VALID,85.0792,VALID,0,VALID,20.6855,VALID,95,VALID,1.13384,
2002-02-15, 01:30:00,VALID,918.588,VALID,0,VALID,85.0716,VALID,0,VALID,20.6696,VALID,91,VALID,0.862664,
2002-02-15, 01:31:00,VALID,918.581,VALID,0,VALID,85.1187,VALID,0.0169808,VALID,20.6626,VALID,100,VALID,0.728824,
2002-02-15, 01:32:00,VALID,918.552,VALID,0,VALID,84.9572,VALID,0.0169808,VALID,20.6758,VALID,109,VALID,0.657895,
2002-02-15, 01:33:00,VALID,918.544,VALID,0,VALID,84.9635,VALID,0,VALID,20.6984,VALID,95,VALID,0.594752,
2002-02-15, 01:34:00,VALID,918.531,VALID,0,VALID,84.9406,VALID,0,VALID,20.7089,VALID,81,VALID,0.368555,
2002-02-15, 01:35:00,VALID,918.507,VALID,0,VALID,84.9648,VALID,0,VALID,20.6987,VALID,86,VALID,0.892475,
2002-02-15, 01:36:00,VALID,918.492,VALID,0,VALID,84.8326,VALID,0,VALID,20.6989,VALID,82,VALID,1.38014,
2002-02-15, 01:37:00,VALID,918.479,VALID,0,VALID,84.8249,VALID,-0.0169808,VALID,20.6919,VALID,74,VALID,1.32895,
2002-02-15, 01:38:00,VALID,918.469,VALID,0,VALID,84.8313,VALID,0,VALID,20.6952,VALID,74,VALID,1.08964,
2002-02-15, 01:39:00,VALID,918.442,VALID,0,VALID,84.8898,VALID,0,VALID,20.6857,VALID,93,VALID,0.930304,
2002-02-15, 01:40:00,VALID,918.431,VALID,0,VALID,85.1288,VALID,-0.0169808,VALID,20.6696,VALID,74,VALID,0.615337,
2002-02-15, 01:41:00,VALID,918.416,VALID,0,VALID,85.2687,VALID,-0.0169808,VALID,20.637,VALID,73,VALID,1.07031,
2002-02-15, 01:42:00,VALID,918.411,VALID,0,VALID,85.2369,VALID,0,VALID,20.6082,VALID,61,VALID,1.20801,
2002-02-15, 01:43:00,VALID,918.402,VALID,0,VALID,85.3018,VALID,0,VALID,20.5853,VALID,69,VALID,0.914063,
2002-02-15, 01:44:00,VALID,918.383,VALID,0,VALID,85.5917,VALID,0,VALID,20.5659,VALID,58,VALID,0.797286,
2002-02-15, 01:45:00,VALID,918.365,VALID,0,VALID,85.8549,VALID,0,VALID,20.5272,VALID,65,VALID,0.789063,
2002-02-15, 01:46:00,VALID,918.34,VALID,0,VALID,85.9732,VALID,0,VALID,20.4653,VALID,77,VALID,1.01645,
2002-02-15, 01:47:00,VALID,918.304,VALID,0,VALID,85.9834,VALID,0,VALID,20.4728,VALID,89,VALID,0.817023,
2002-02-15, 01:48:00,VALID,918.268,VALID,0,VALID,86.0571,VALID,0,VALID,20.4787,VALID,66,VALID,0.67537,
2002-02-15, 01:49:00,VALID,918.235,VALID,0,VALID,86.1461,VALID,0,VALID,20.4596,VALID,65,VALID,0.435096,
2002-02-15, 01:50:00,VALID,918.209,VALID,0,VALID,86.3623,VALID,0,VALID,20.4437,VALID,68,VALID,0.671484,
2002-02-15, 01:51:00,VALID,918.183,VALID,0,VALID,86.5276,VALID,-0.0169808,VALID,20.4176,VALID,67,VALID,0.637336,
2002-02-15, 01:52:00,VALID,918.168,VALID,0,VALID,86.5988,VALID,-0.0169808,VALID,20.3848,VALID,100,VALID,0.763363,
2002-02-15, 01:53:00,VALID,918.147,VALID,0,VALID,86.4678,VALID,0.0169808,VALID,20.388,VALID,104,VALID,0.796875,
2002-02-15, 01:54:00,VALID,918.138,VALID,0,VALID,86.7412,VALID,0,VALID,20.3624,VALID,44,VALID,0.643092,
2002-02-15, 01:55:00,VALID,918.137,VALID,0,VALID,87.0884,VALID,0,VALID,20.2983,VALID,43,VALID,0.588199,
2002-02-15, 01:56:00,VALID,918.124,VALID,0,VALID,87.3643,VALID,0,VALID,20.2367,VALID,54,VALID,0.638569,
2002-02-15, 01:57:00,VALID,918.104,VALID,0,VALID,87.3452,VALID,0,VALID,20.224,VALID,86,VALID,0.881611,
2002-02-15, 01:58:00,VALID,918.1,VALID,0,VALID,87.3478,VALID,0,VALID,20.2367,VALID,86,VALID,0.795898,
2002-02-15, 01:59:00,VALID,918.093,VALID,0,VALID,87.227,VALID,0,VALID,20.2464,VALID,99,VALID,0.936061,
2002-02-15, 02:00:00,VALID,918.073,VALID,0,VALID,87.0248,VALID,-0.0169808,VALID,20.2625,VALID,92,VALID,0.833882,
2002-02-15, 02:01:00,VALID,918.064,VALID,0,VALID,86.8951,VALID,-0.0339617,VALID,20.3013,VALID,105,VALID,0.870066,
2002-02-15, 02:02:00,VALID,918.049,VALID,0,VALID,86.5912,VALID,-0.0339617,VALID,20.3336,VALID,123,VALID,1.22841,
2002-02-15, 02:03:00,VALID,918.042,VALID,0,VALID,86.417,VALID,0,VALID,20.3664,VALID,117,VALID,0.788651,
2002-02-15, 02:04:00,VALID,918.022,VALID,0,VALID,86.3941,VALID,0,VALID,20.3721,VALID,97,VALID,0.752056,
2002-02-15, 02:05:00,VALID,918.017,VALID,0,VALID,86.4793,VALID,-0.0169808,VALID,20.3659,VALID,80,VALID,0.570313,
2002-02-15, 02:06:00,VALID,918.016,VALID,0,VALID,86.8163,VALID,0,VALID,20.3112,VALID,60,VALID,0.718945,
2002-02-15, 02:07:00,VALID,918.011,VALID,0,VALID,87.3198,VALID,-0.0169808,VALID,20.2245,VALID,70,VALID,0.760485,
2002-02-15, 02:08:00,VALID,918.006,VALID,0,VALID,87.6988,VALID,-0.0509425,VALID,20.1438,VALID,70,VALID,0.986431,
2002-02-15, 02:09:00,VALID,917.998,VALID,0,VALID,87.9429,VALID,-0.0169808,VALID,20.0953,VALID,75,VALID,1.15502,
2002-02-15, 02:10:00,VALID,917.989,VALID,0,VALID,88.0548,VALID,-0.0509425,VALID,20.063,VALID,64,VALID,1.07422,
2002-02-15, 02:11:00,VALID,917.967,VALID,0,VALID,88.0942,VALID,-0.0169808,VALID,20.0334,VALID,76,VALID,1.10567,
2002-02-15, 02:12:00,VALID,917.942,VALID,0,VALID,88.051,VALID,0.0169808,VALID,20.0332,VALID,82,VALID,1.2134,
2002-02-15, 02:13:00,VALID,917.922,VALID,0,VALID,87.9874,VALID,-0.0169808,VALID,20.0498,VALID,86,VALID,1.13462,
2002-02-15, 02:14:00,VALID,917.907,VALID,0,VALID,87.9798,VALID,0,VALID,20.0364,VALID,85,VALID,1.24297,
2002-02-15, 02:15:00,VALID,917.892,VALID,0,VALID,87.9226,VALID,0,VALID,20.0391,VALID,92,VALID,1.22492,
2002-02-15, 02:16:00,VALID,917.861,VALID,0,VALID,87.859,VALID,-0.0339617,VALID,20.0496,VALID,91,VALID,1.22533,
2002-02-15, 02:17:00,VALID,917.83,VALID,0,VALID,87.8666,VALID,-0.0509425,VALID,20.066,VALID,95,VALID,1.12294,
2002-02-15, 02:18:00,VALID,917.81,VALID,0,VALID,87.9569,VALID,-0.0169808,VALID,20.0762,VALID,111,VALID,1.14268,
2002-02-15, 02:19:00,VALID,917.769,VALID,0,VALID,87.8107,VALID,-0.0169808,VALID,20.0859,VALID,110,VALID,1.147,
2002-02-15, 02:20:00,VALID,917.759,VALID,0,VALID,87.6072,VALID,0,VALID,20.1204,VALID,116,VALID,1.02405,
2002-02-15, 02:21:00,VALID,917.729,VALID,0,VALID,87.4915,VALID,0,VALID,20.1535,VALID,109,VALID,1.21414,
2002-02-15, 02:22:00,VALID,917.698,VALID,0,VALID,87.3656,VALID,-0.0509425,VALID,20.1731,VALID,89,VALID,0.914063,
2002-02-15, 02:23:00,VALID,917.69,VALID,0,VALID,87.6186,VALID,-0.0169808,VALID,20.1341,VALID,89,VALID,0.96361,
2002-02-15, 02:24:00,VALID,917.68,VALID,0,VALID,87.9709,VALID,-0.0509425,VALID,20.0729,VALID,93,VALID,0.835115,
2002-02-15, 02:25:00,VALID,917.694,VALID,0,VALID,88.2405,VALID,0,VALID,20.0118,VALID,100,VALID,0.748355,
2002-02-15, 02:26:00,VALID,917.685,VALID,0,VALID,88.6359,VALID,0,VALID,19.9467,VALID,97,VALID,0.838816,
2002-02-15, 02:27:00,VALID,917.7,VALID,0,VALID,88.7796,VALID,0,VALID,19.8891,VALID,86,VALID,0.799753,
2002-02-15, 02:28:00,VALID,917.704,VALID,0,VALID,89.0772,VALID,-0.0169808,VALID,19.8396,VALID,108,VALID,0.786595,
2002-02-15, 02:29:00,VALID,917.702,VALID,0,VALID,89.2399,VALID,0,VALID,19.8202,VALID,121,VALID,0.833133,
2002-02-15, 02:30:00,VALID,917.697,VALID,0,VALID,89.1484,VALID,-0.0169808,VALID,19.8299,VALID,140,VALID,0.789453,
2002-02-15, 02:31:00,VALID,917.71,VALID,0,VALID,89.1522,VALID,0,VALID,19.8366,VALID,149,VALID,0.867599,
2002-02-15, 02:32:00,VALID,917.733,VALID,0,VALID,89.0009,VALID,-0.0339617,VALID,19.8627,VALID,152,VALID,0.722862,
2002-02-15, 02:33:00,VALID,917.746,VALID,0,VALID,88.8508,VALID,0,VALID,19.895,VALID,163,VALID,0.57463,
2002-02-15, 02:34:00,VALID,917.758,VALID,0,VALID,88.7186,VALID,-0.0339617,VALID,19.9015,VALID,166,VALID,0.575041,
2002-02-15, 02:35:00,VALID,917.772,VALID,0,VALID,88.6652,VALID,0,VALID,19.8853,VALID,168,VALID,0.569079,
2002-02-15, 02:36:00,VALID,917.781,VALID,0,VALID,88.9144,VALID,-0.0339617,VALID,19.8689,VALID,149,VALID,0.754317,
2002-02-15, 02:37:00,VALID,917.794,VALID,0,VALID,88.9335,VALID,0,VALID,19.8727,VALID,150,VALID,0.861779,
2002-02-15, 02:38:00,VALID,917.798,VALID,0,VALID,88.9373,VALID,-0.0169808,VALID,19.8563,VALID,168,VALID,0.788477,
2002-02-15, 02:39:00,VALID,917.797,VALID,0,VALID,89.0009,VALID,0,VALID,19.8235,VALID,174,VALID,0.89227,
2002-02-15, 02:40:00,VALID,917.764,VALID,0,VALID,89.3785,VALID,0,VALID,19.7748,VALID,178,VALID,0.862664,
2002-02-15, 02:41:00,VALID,917.749,VALID,0,VALID,89.6837,VALID,0,VALID,19.7628,VALID,180,VALID,0.841077,
2002-02-15, 02:42:00,VALID,917.726,VALID,0,VALID,89.6507,VALID,-0.0169808,VALID,19.7397,VALID,179,VALID,0.230263,
2002-02-15, 02:43:00,VALID,917.724,VALID,0,VALID,89.5362,VALID,-0.0169808,VALID,19.7333,VALID,179,VALID,0.33861,
2002-02-15, 02:44:00,VALID,917.725,VALID,0,VALID,89.526,VALID,0,VALID,19.7271,VALID,180,VALID,0.443873,
2002-02-15, 02:45:00,VALID,917.722,VALID,0,VALID,89.6443,VALID,0,VALID,19.734,VALID,208,VALID,0.330329,
2002-02-15, 02:46:00,VALID,917.715,VALID,0,VALID,89.5362,VALID,0,VALID,19.7591,VALID,185,VALID,0.244531,
2002-02-15, 02:47:00,VALID,917.716,VALID,0,VALID,89.4256,VALID,0.0169808,VALID,19.7556,VALID,168,VALID,0.288651,
2002-02-15, 02:48:00,VALID,917.709,VALID,0,VALID,89.2501,VALID,0,VALID,19.7459,VALID,183,VALID,0.616776,
2002-02-15, 02:49:00,VALID,917.711,VALID,0,VALID,89.3048,VALID,0.0169808,VALID,19.7201,VALID,183,VALID,0.401316,
2002-02-15, 02:50:00,VALID,917.701,VALID,0,VALID,89.2908,VALID,0,VALID,19.6843,VALID,182,VALID,0.1581,
2002-02-15, 02:51:00,VALID,917.686,VALID,0,VALID,89.5718,VALID,0.0169808,VALID,19.6235,VALID,168,VALID,0.193873,
2002-02-15, 02:52:00,VALID,917.691,VALID,0,VALID,90.0461,VALID,0.0169808,VALID,19.5653,VALID,143,VALID,0.136513,
2002-02-15, 02:53:00,VALID,917.691,VALID,0,VALID,90.4721,VALID,0,VALID,19.4873,VALID,142,VALID,0.0663061,
2002-02-15, 02:54:00,VALID,917.683,VALID,0,VALID,90.7697,VALID,0,VALID,19.4264,VALID,142,VALID,0.153125,
2002-02-15, 02:55:00,VALID,917.69,VALID,0,VALID,91.2402,VALID,-0.0169808,VALID,19.375,VALID,139,VALID,0.297081,
2002-02-15, 02:56:00,VALID,917.676,VALID,0,VALID,91.7501,VALID,0,VALID,19.3464,VALID,119,VALID,0.5331,
2002-02-15, 02:57:00,VALID,917.682,VALID,0,VALID,92.143,VALID,0,VALID,19.3171,VALID,93,VALID,0.698191,
2002-02-15, 02:58:00,VALID,917.686,VALID,0,VALID,92.04,VALID,0,VALID,19.3007,VALID,91,VALID,0.797697,
2002-02-15, 02:59:00,VALID,917.683,VALID,0,VALID,92.2689,VALID,0,VALID,19.288,VALID,91,VALID,0.660362,
2002-02-15, 03:00:00,VALID,917.688,VALID,0,VALID,92.6695,VALID,0,VALID,19.3134,VALID,100,VALID,0.684005,
2002-02-15, 03:01:00,VALID,917.694,VALID,0,VALID,92.4139,VALID,-0.0339617,VALID,19.3556,VALID,104,VALID,0.779247,
2002-02-15, 03:02:00,VALID,917.702,VALID,0,VALID,91.6662,VALID,0.0169808,VALID,19.4493,VALID,106,VALID,0.632422,
2002-02-15, 03:03:00,VALID,917.686,VALID,0,VALID,91.1893,VALID,0,VALID,19.5079,VALID,94,VALID,0.669819,
2002-02-15, 03:04:00,VALID,917.689,VALID,0,VALID,89.4141,VALID,0,VALID,19.4719,VALID,37,VALID,0.559622,
2002-02-15, 03:05:00,VALID,917.699,VALID,0,VALID,89.493,VALID,0.0169808,VALID,19.2972,VALID,23,VALID,0.531456,
2002-02-15, 03:06:00,VALID,917.716,VALID,0,VALID,90.4798,VALID,-0.0169808,VALID,19.178,VALID,22,VALID,0.453742,
2002-02-15, 03:07:00,VALID,917.732,VALID,0,VALID,91.1804,VALID,0.0339617,VALID,19.0654,VALID,37,VALID,0.613487,
2002-02-15, 03:08:00,VALID,917.736,VALID,0,VALID,92.2676,VALID,0.0339617,VALID,18.9912,VALID,4,VALID,0.707648,
2002-02-15, 03:09:00,VALID,917.737,VALID,0,VALID,92.9963,VALID,0,VALID,18.9164,VALID,351,VALID,0.733173,
2002-02-15, 03:10:00,VALID,917.758,VALID,0,VALID,94.1623,VALID,0.0169808,VALID,18.8774,VALID,11,VALID,0.886719,
2002-02-15, 03:11:00,VALID,917.758,VALID,0,VALID,94.245,VALID,0.0169808,VALID,18.8618,VALID,18,VALID,0.853207,
2002-02-15, 03:12:00,VALID,917.754,VALID,0,VALID,94.4332,VALID,0,VALID,18.8198,VALID,31,VALID,0.671669,
2002-02-15, 03:13:00,VALID,917.766,VALID,0,VALID,94.9863,VALID,-0.0169808,VALID,18.8168,VALID,36,VALID,0.574219,
2002-02-15, 03:14:00,VALID,917.767,VALID,0,VALID,95.2241,VALID,0,VALID,18.8295,VALID,49,VALID,0.601357,
2002-02-15, 03:15:00,VALID,917.76,VALID,0,VALID,95.4059,VALID,0.0169808,VALID,18.8362,VALID,49,VALID,0.751028,
2002-02-15, 03:16:00,VALID,917.76,VALID,0,VALID,95.4288,VALID,0.0339617,VALID,18.829,VALID,49,VALID,1.00206,
2002-02-15, 03:17:00,VALID,917.751,VALID,0,VALID,95.3729,VALID,0.0169808,VALID,18.8396,VALID,49,VALID,1.36498,
2002-02-15, 03:18:00,VALID,917.755,VALID,0,VALID,95.4441,VALID,0.0169808,VALID,18.8454,VALID,51,VALID,1.44453,
2002-02-15, 03:19:00,VALID,917.749,VALID,0,VALID,95.392,VALID,0,VALID,18.9328,VALID,58,VALID,1.34252,
2002-02-15, 03:20:00,VALID,917.729,VALID,0,VALID,94.9202,VALID,0.0509425,VALID,19.0428,VALID,65,VALID,1.18935,
2002-02-15, 03:21:00,VALID,917.719,VALID,0,VALID,94.2818,VALID,-0.0169808,VALID,19.1404,VALID,60,VALID,1.02611,
2002-02-15, 03:22:00,VALID,917.717,VALID,0,VALID,93.7045,VALID,-0.101885,VALID,19.1891,VALID,57,VALID,0.784128,
2002-02-15, 03:23:00,VALID,917.71,VALID,0,VALID,93.5392,VALID,-0.101885,VALID,19.2321,VALID,60,VALID,0.369243,
2002-02-15, 03:24:00,VALID,917.701,VALID,0,VALID,92.4787,VALID,0,VALID,19.2048,VALID,329,VALID,0.342516,
2002-02-15, 03:25:00,VALID,917.702,VALID,0,VALID,92.4851,VALID,0,VALID,19.1688,VALID,291,VALID,0.467949,
2002-02-15, 03:26:00,VALID,917.703,VALID,0,VALID,92.0222,VALID,0,VALID,19.133,VALID,20,VALID,0.576563,
2002-02-15, 03:27:00,VALID,917.718,VALID,0,VALID,92.4368,VALID,0.0169808,VALID,19.0659,VALID,22,VALID,0.496711,
2002-02-15, 03:28:00,VALID,917.717,VALID,0,VALID,93.0242,VALID,0,VALID,19.056,VALID,29,VALID,0.586143,
2002-02-15, 03:29:00,VALID,917.725,VALID,0,VALID,93.4833,VALID,0,VALID,19.0495,VALID,41,VALID,0.513363,
2002-02-15, 03:30:00,VALID,917.731,VALID,0,VALID,93.8025,VALID,0.0169808,VALID,19.0756,VALID,41,VALID,0.648849,
2002-02-15, 03:31:00,VALID,917.725,VALID,0,VALID,93.7338,VALID,0,VALID,19.0915,VALID,39,VALID,0.568668,
2002-02-15, 03:32:00,VALID,917.726,VALID,0,VALID,92.9441,VALID,0.0339617,VALID,19.0396,VALID,39,VALID,0.684211,
2002-02-15, 03:33:00,VALID,917.717,VALID,0,VALID,93.5787,VALID,0,VALID,19.0046,VALID,40,VALID,0.735176,
2002-02-15, 03:34:00,VALID,917.712,VALID,0,VALID,94.1216,VALID,0.0169808,VALID,19.0145,VALID,42,VALID,0.688281,
2002-02-15, 03:35:00,VALID,917.709,VALID,0,VALID,94.1916,VALID,0,VALID,19.0343,VALID,42,VALID,0.625,
2002-02-15, 03:36:00,VALID,917.711,VALID,0,VALID,93.9945,VALID,0,VALID,19.0272,VALID,40,VALID,0.623972,
2002-02-15, 03:37:00,VALID,917.722,VALID,0,VALID,93.4973,VALID,0,VALID,18.9526,VALID,40,VALID,0.741982,